This is the latest recevied weather packets stored in our database for station/object KC1TEM-13. If no packets are shown the sender has not sent any weather packets the latest 10 day(s).
| Time | Temp. | Humidity | Pressure | Rain* | Wind** | Luminosity | Snow |
|---|---|---|---|---|---|---|---|
| 1777741673 | 12.78° C | 66% | 1011.6 hPa | 0 mm | - | 154 W/m² | - |
| 1777741369 | 12.78° C | 68% | 1011.6 hPa | 0 mm | - | 333 W/m² | - |
| 1777741065 | 12.78° C | 65% | 1011.8 hPa | 0 mm | - | 251 W/m² | - |
| 1777740762 | 13.33° C | 67% | 1011.6 hPa | 0 mm | - | 131 W/m² | - |
| 1777740459 | 13.33° C | 63% | 1011.8 hPa | 0 mm | - | 509 W/m² | - |
| 1777740156 | 13.89° C | 65% | 1011.7 hPa | 0 mm | - | 569 W/m² | - |
| 1777739852 | 12.78° C | 66% | 1012 hPa | 0 mm | - | 1117 W/m² | - |
| 1777739549 | 12.22° C | 69% | 1012.2 hPa | 0 mm | - | 428 W/m² | - |
| 1777739246 | 12.22° C | 71% | 1012.2 hPa | 0 mm | - | 362 W/m² | - |
| 1777738943 | 12.22° C | 73% | 1012.3 hPa | 0 mm | - | 226 W/m² | - |
| 1777738640 | 12.78° C | 74% | 1012.1 hPa | 0 mm | - | 488 W/m² | - |
| 1777738335 | 12.78° C | 75% | 1012 hPa | 0 mm | - | 508 W/m² | - |
| 1777738035 | 12.22° C | 71% | 1012.1 hPa | 0 mm | - | 422 W/m² | - |
| 1777737733 | 11.67° C | 75% | 1012 hPa | 0 mm | - | 1178 W/m² | - |
| 1777737431 | 11.67° C | 76% | 1012.1 hPa | 0 mm | - | 921 W/m² | - |
| 1777737128 | 10.56° C | 78% | 1012.1 hPa | 0 mm | - | 953 W/m² | - |
| 1777736824 | 10.56° C | 79% | 1011.9 hPa | 0 mm | - | 375 W/m² | - |
| 1777736200 | 10.56° C | 81% | 1012.1 hPa | 0 mm | - | 157 W/m² | - |
| 1777735897 | 10.56° C | 79% | 1012.2 hPa | 0 mm | - | 155 W/m² | - |
| 1777735595 | 10.56° C | 79% | 1012.2 hPa | 0 mm | - | 249 W/m² | - |
| 1777735292 | 10.56° C | 78% | 1012.3 hPa | 0 mm | - | 267 W/m² | - |
| 1777734990 | 10.56° C | 81% | 1012.4 hPa | 0 mm | - | 349 W/m² | - |
| 1777734687 | 10° C | 82% | 1012.2 hPa | 0 mm | - | 696 W/m² | - |
| 1777734384 | 10° C | 84% | 1012.4 hPa | 0 mm | - | 421 W/m² | - |
| 1777734080 | 9.44° C | 85% | 1012.3 hPa | 0 mm | - | 274 W/m² | - |
* Rain latest hour (hover to see other rain measurements)
** Current wind speed in m/s (hover to see current wind gust speed)